Location: Habighorst
(52.7089°N, 10.2278°E)
Time: 22:53:27
(UTC+00:00)

Cosmos 2082 Rocket - Visible Passes

Search period start: 18 April 2026 00:00
Search period end: 28 April 2026 00:00
Orbit: 830 x 854 km, 71.0° (Epoch: 18 April)

Date Brightness Start Highest point End Pass type
(mag) Time Alt. Az. Time Alt. Az. Time Alt. Az.
18 Apr 3.6 00:16:18 24° ESE 00:17:21 26° ESE 00:21:58 10° NE visible
18 Apr 2.3 01:58:07 31° SW 02:00:57 71° NW 02:06:42 10° NNE visible
19 Apr 3.6 00:01:40 24° ESE 00:02:28 25° ESE 00:07:00 10° NE visible
19 Apr 2.3 01:43:29 34° SW 01:46:02 73° WNW 01:51:47 10° NNE visible
19 Apr 3.9 03:26:39 10° W 03:31:06 23° NNW 03:35:34 10° NNE visible
19 Apr 3.7 23:47:00 23° ESE 23:47:36 24° ESE 23:52:02 10° NE visible
20 Apr 2.2 01:28:49 38° SW 01:31:06 76° WNW 01:36:53 10° NNE visible
20 Apr 3.8 03:11:39 10° W 03:16:09 23° NNW 03:20:40 10° NNE visible
20 Apr 3.7 23:32:19 22° ESE 23:32:44 23° ESE 23:37:04 10° NE visible
21 Apr 2.2 01:14:07 41° SW 01:16:12 78° WNW 01:21:58 10° NNE visible
21 Apr 3.8 02:56:38 10° W 03:01:12 24° NW 03:05:47 10° NNE visible
21 Apr 3.7 23:17:36 22° ESE 23:17:51 22° E 23:22:05 10° NE visible
22 Apr 2.2 00:59:24 45° SW 01:01:17 81° WNW 01:07:03 10° NNE visible
22 Apr 3.8 02:41:38 10° W 02:46:15 24° NW 02:50:52 10° NNE visible
22 Apr 3.8 23:02:51 21° ESE 23:02:58 21° E 23:07:06 10° NE visible
23 Apr 2.2 00:44:39 48° SW 00:46:22 84° WNW 00:52:08 10° NNE visible
23 Apr 3.8 02:26:38 10° W 02:31:17 25° NW 02:35:58 10° NNE visible
23 Apr 3.8 22:48:04 20° E 22:48:06 20° E 22:52:07 10° NE visible
24 Apr 2.1 00:29:53 50° SW 00:31:27 87° WNW 00:37:14 10° NNE visible
24 Apr 3.8 02:11:41 10° W 02:16:20 25° NW 02:21:04 10° NNE visible
24 Apr 3.8 22:33:17 19° E 22:33:17 19° E 22:37:07 10° ENE visible
25 Apr 2.1 00:15:04 53° SSW 00:16:33 90° N 00:22:19 10° NNE visible
25 Apr 3.8 01:56:52 11° W 02:01:23 26° NW 02:06:09 10° NNE visible
25 Apr 3.9 22:18:26 18° E 22:18:26 18° E 22:22:08 10° ENE visible
26 Apr 2.1 00:00:14 54° SSW 00:01:38 87° ESE 00:07:24 10° NNE visible
26 Apr 3.8 01:42:01 12° W 01:46:26 27° NW 01:51:15 10° NNE visible
26 Apr 3.9 22:03:33 17° E 22:03:33 17° E 22:07:07 10° ENE visible
26 Apr 2.1 23:45:21 54° SSW 23:46:43 84° ESE 23:52:29 10° NNE visible
27 Apr 3.8 01:27:08 12° W 01:31:29 27° NW 01:36:21 10° NNE visible
27 Apr 4.6 03:14:56 10° NW 03:17:38 13° NNW 03:20:21 10° NNE visible
27 Apr 3.9 21:48:39 17° E 21:48:39 17° E 21:52:07 10° ENE visible
27 Apr 2.1 23:30:27 54° SSW 23:31:49 81° ESE 23:37:34 10° NNE visible
